Flag for United Kingdom Weather past 2 weeks in Guildford, England, United Kingdom

Now
48 °F

Passing clouds.


Feels Like: 41 °F
Forecast: 43 / 54 °F
Wind: 23 mph from Southwest

Location: Odiham

Current Time: Apr 2, 2015 at 3:09:59 AM

Latest Report: Apr 2, 2015 at 1:50 AM


Visibility: N/A

Pressure: 30.01 "Hg

Humidity: 87%

Dew point: 45 °F

Location of GuildfordLocation

Historic Weather in Guildford — Graph

°F

Guildford temperature yesterday

Maximum temperature yesterday: 50 °F (at 1:50 PM)
Minimum temperature yesterday: 37 °F (at 6:50 AM)
Average temperature yesterday: 44 °F

Past Weeks' High & Low Weather Summary

 TemperatureHumidityPressure
High55 °F (Mar 28, 10:50 AM)100% (Mar 18, 12:50 AM)30.51 "Hg (Mar 18, 12:50 AM)
Low32 °F (Mar 18, 4:50 AM)33% (Mar 31, 1:50 PM)29.42 "Hg (Mar 29, 12:50 PM)
Average45 °F71%30.02 "Hg
* Reported Mar 18 12:50 AM — Apr 2 1:50 AM, Guildford, Weather by CustomWeather, © 2015

Note: Actual official high and low records may vary slightly from our data, if they occured in-between our weather recording intervals... More about our weather records

Advertising

Guildford weather history for previous 24 hours

 ConditionsComfort  
Time TempWeatherWind HumidityBarometerVisibility
1:50 AM
Thu, Apr 2
48 °FPassing clouds.23 mph87%30.01 "HgN/A
12:50 AM46 °FMostly cloudy.20 mph93%30.04 "HgN/A
11:50 PM
Wed, Apr 1
45 °FLight rain. Mostly cloudy.22 mph93%30.07 "Hg4 mi
10:50 PM45 °FPartly cloudy.22 mph93%30.07 "Hg3 mi
9:50 PM45 °FLight rain. Partly cloudy.16 mph87%30.12 "Hg3 mi
8:50 PM46 °FLight rain. Overcast.17 mph71%30.15 "HgN/A
7:50 PM46 °FLight rain. Mostly cloudy.16 mph71%30.18 "HgN/A
6:50 PM46 °FPartly sunny.17 mph66%30.18 "HgN/A
5:50 PM48 °FPartly sunny.21 mph62%30.21 "HgN/A
4:50 PM48 °FPartly sunny.20 mph54%30.21 "HgN/A
3:50 PM48 °FPartly sunny.18 mph54%30.24 "HgN/A
2:50 PM48 °FSprinkles. Partly sunny.18 mph50%30.24 "HgN/A
1:50 PM50 °FBroken clouds.16 mph43%30.27 "HgN/A
12:50 PM48 °FBroken clouds.20 mph46%30.27 "HgN/A
11:50 AM48 °FPartly sunny.21 mph50%30.30 "HgN/A
10:50 AM46 °FScattered clouds.22 mph53%30.27 "HgN/A
9:50 AM45 °FScattered clouds.18 mph57%30.27 "HgN/A
8:50 AM41 °FSunny.18 mph66%30.27 "Hg10 mi
7:50 AM39 °FSunny.15 mph70%30.27 "Hg10 mi
6:50 AM37 °FClear.14 mph75%30.24 "Hg10 mi
5:50 AM39 °FClear.14 mph70%30.21 "Hg10 mi
4:50 AM39 °FPassing clouds.10 mph65%30.21 "HgN/A
3:50 AM39 °FPassing clouds.14 mph65%30.18 "HgN/A
Weather by CustomWeather, © 2015

See weather overviewHow to use our weather pages